GEFSNE_con_probscp_330.txt.gz
Probability
3 3 3 3 2 2 3 2 1 0 0 0 0 0 0 0 0 0 0 0 0 0 0 0 0 0 0 0 0 0 0 0 0 0 0 0 0 0
1 2 2 2 3 3 2 3 2 1 0 0 0 0 0 0 0 0 0 0 0 0 0 0 0 0 0 0 0 0 0 0 0 0 0 0 0 0
0 1 1 1 2 2 3 3 3 2 1 0 0 0 0 0 1 2 1 0 0 0 0 0 0 0 0 0 0 0 0 0 0 0 0 0 0 0
0 0 0 0 1 1 2 3 3 3 2 1 0 0 0 1 2 3 3 1 0 0 0 0 0 0 0 0 0 0 0 0 0 0 0 0 0 0
1 0 0 0 0 0 1 2 3 3 3 1 1 0 0 1 3 4 4 3 1 0 0 1 1 0 0 0 0 0 0 0 0 0 0 0 0 0
2 1 0 0 0 0 0 1 2 3 3 2 1 0 1 2 4 5 5 3 1 0 1 2 2 1 0 0 0 0 0 0 0 0 0 0 0 0
5 3 1 0 0 0 0 0 1 3 3 2 1 0 1 3 5 6 6 4 2 2 2 3 2 1 1 1 1 0 0 0 0 0 0 0 0 0
6 5 3 1 0 0 0 0 1 2 3 2 1 0 1 3 5 7 7 5 3 3 3 2 3 3 2 2 2 1 0 0 0 0 0 0 0 0
6 6 5 3 1 0 0 0 0 1 2 2 2 1 0 1 4 6 6 5 4 3 4 4 4 4 3 3 3 2 1 0 0 0 0 0 0 0
6 6 4 3 2 0 0 0 0 0 0 1 1 2 1 1 2 4 4 3 3 4 5 6 6 5 3 3 3 2 1 0 0 0 0 0 0 0
6 6 4 3 2 0 0 0 0 1 1 1 1 2 2 1 1 3 3 3 3 4 6 7 6 5 4 3 3 3 1 1 0 0 0 0 0 0
6 6 4 3 2 0 0 1 1 2 2 2 3 3 3 2 3 4 5 5 5 6 7 7 5 4 3 3 3 3 3 2 1 1 0 0 0 0
7 7 5 3 1 0 0 2 2 1 1 1 3 5 5 6 6 7 7 7 7 8 7 7 5 4 4 3 2 2 2 2 2 1 1 0 0 0
8 7 5 2 0 0 0 1 1 1 1 1 3 5 7 7 7 7 7 7 7 7 7 7 6 5 4 2 1 1 1 1 1 1 1 0 0 0
7 5 2 1 0 0 0 0 0 1 2 3 4 6 6 6 6 6 6 6 6 6 6 7 6 5 4 3 2 1 1 1 0 0 0 0 0 0
3 2 0 0 0 1 1 1 1 2 2 3 4 5 6 6 7 6 6 6 5 4 4 4 4 4 3 3 3 2 2 1 0 0 0 0 0 0
1 1 1 1 1 2 3 3 2 2 1 1 3 4 4 6 7 6 5 4 4 3 3 3 3 3 2 2 2 2 1 1 0 0 0 0 0 0
1 2 2 2 2 3 5 5 3 1 1 1 3 3 3 4 6 7 6 5 5 5 4 4 3 1 1 1 1 1 0 0 0 0 0 0 0 0
2 3 4 3 3 4 5 6 5 4 3 3 4 4 4 4 5 7 8 8 8 8 6 5 3 1 1 0 0 0 0 0 0 0 0 0 0 0
4 5 5 4 4 4 5 7 7 7 6 5 4 4 4 5 5 6 8 9 9 9 7 5 3 2 1 0 0 0 0 0 0 0 0 0 0 0
5 5 5 5 5 4 5 6 7 6 5 4 3 3 3 4 4 4 5 6 6 6 5 3 1 1 1 0 0 0 0 0 0 0 0 0 0 0
4 4 4 4 4 5 5 5 4 4 4 3 2 2 2 1 2 3 3 4 4 3 2 1 0 0 0 0 0 0 0 0 0 0 0 0 0 0
3 3 3 3 4 4 4 4 4 3 3 3 2 1 1 0 1 2 3 3 3 1 0 0 0 0 0 0 0 0 0 0 0 0 0 0 0 0

GEFSNE_con_probscp_336.txt.gz
Probability
0 0 0 0 1 0 0 0 0 1 1 0 0 1 0 0 1 2 2 1 0 0 0 0 0 0 0 0 0 0 0 0 0 1 1 1 0 0
0 0 0 0 1 0 0 0 0 1 1 0 1 1 1 0 0 1 1 1 0 0 0 0 0 0 0 0 0 0 0 0 0 0 0 0 0 0
0 0 0 0 0 0 0 0 0 1 1 0 1 1 1 0 0 0 0 0 0 0 0 0 0 0 0 0 0 0 0 0 0 0 0 0 0 0
1 1 0 0 0 0 0 0 0 0 1 1 1 1 1 0 0 0 0 0 0 0 0 0 0 0 0 0 0 0 0 0 0 0 0 0 0 0
3 2 0 0 0 0 0 0 0 0 1 2 2 2 2 1 0 0 0 0 0 0 0 0 0 0 0 0 0 0 0 0 0 0 0 0 0 0
3 2 1 1 1 0 0 0 0 0 1 1 2 3 3 2 1 0 0 0 0 1 1 0 1 1 1 0 0 0 0 0 0 0 0 0 0 0
4 4 3 3 2 0 0 0 0 0 0 0 1 2 4 4 2 1 0 0 1 2 2 1 2 2 1 0 0 0 0 0 0 0 0 0 0 0
6 6 6 5 3 1 0 0 0 0 0 1 2 3 4 5 5 3 1 1 1 3 3 3 3 3 2 1 0 0 0 0 0 0 0 0 0 0
6 6 6 6 5 4 2 0 0 0 1 3 4 5 4 5 5 5 4 3 3 3 3 4 5 5 5 5 2 0 0 0 0 0 0 0 0 0
6 6 6 6 6 6 4 2 1 0 0 2 4 4 3 3 4 5 5 4 3 3 3 4 5 7 8 8 5 1 0 0 0 0 0 0 0 0
6 6 6 6 5 5 4 3 2 1 1 1 2 3 3 2 2 4 5 5 4 4 4 4 5 7 8 9 6 3 1 0 0 0 0 0 0 0
7 7 6 6 4 3 3 4 4 4 3 3 2 3 3 2 2 4 6 6 6 5 5 6 6 7 8 9 8 5 3 2 1 1 0 0 0 0
9 8 7 6 3 1 1 3 4 5 5 4 4 3 3 4 4 5 6 7 8 8 7 6 6 6 7 8 7 6 4 3 2 2 1 0 0 0
12 10 7 5 2 1 0 1 2 3 4 5 5 4 4 4 4 4 5 7 8 8 7 6 6 6 7 7 6 4 3 3 3 3 2 1 1 0
11 8 4 2 1 0 0 0 0 1 3 5 6 6 5 4 4 4 4 6 7 7 7 6 6 6 6 6 6 4 3 3 3 3 3 3 2 1
6 4 2 1 0 0 0 0 0 1 2 4 6 7 6 5 4 3 3 4 6 6 6 5 5 5 4 5 6 5 4 4 3 3 3 3 3 3
5 5 5 4 3 1 0 0 0 0 1 2 4 5 4 4 4 4 3 3 4 4 4 5 6 5 4 5 6 6 6 5 4 3 3 3 3 2
7 8 8 8 7 5 2 1 1 1 0 0 1 2 2 4 4 4 4 3 3 3 3 5 6 6 5 5 5 5 6 5 4 3 2 2 1 1
7 7 9 9 9 8 5 3 3 2 1 0 0 1 3 3 3 3 3 3 2 2 3 4 5 5 4 4 4 3 4 4 3 1 1 1 1 0
6 6 7 8 9 8 7 5 4 4 2 1 1 3 4 3 1 1 2 2 2 1 1 2 3 3 3 4 4 3 2 2 2 1 1 1 1 1
4 4 5 6 7 7 7 6 6 5 4 3 4 4 4 3 1 0 1 1 1 1 0 0 1 1 2 4 4 3 1 1 2 1 1 1 1 1
3 3 4 6 6 6 6 6 6 6 5 5 5 4 3 3 1 1 0 0 0 0 0 0 0 0 1 3 3 3 2 1 1 1 0 0 0 1
3 3 4 6 6 6 6 6 6 6 5 4 4 4 3 3 2 2 1 0 0 0 0 0 0 0 1 2 2 2 2 2 2 1 0 0 0 0

GEFSNE_con_probscp_342.txt.gz
Probability
4 5 5 6 6 8 9 8 7 5 4 5 7 8 10 10 10 12 11 4 0 0 0 0 0 0 0 0 0 0 0 1 2 2 2 2 2 2
6 5 5 5 6 8 10 10 9 8 5 5 6 8 10 11 11 13 12 7 3 1 0 0 0 0 0 0 0 0 0 0 1 1 1 1 1 1
8 7 6 6 7 9 11 12 11 10 8 6 5 7 10 13 14 14 14 12 7 2 0 0 0 0 0 0 0 0 0 0 0 0 0 0 0 0
9 9 8 8 10 11 11 11 10 10 9 6 5 6 10 12 14 14 14 14 10 3 0 0 0 0 0 0 0 0 0 0 0 0 0 0 0 0
10 10 10 11 12 13 12 11 10 10 10 8 6 7 9 10 11 12 12 13 11 5 2 1 0 0 0 0 0 0 0 0 0 0 0 0 0 0
12 11 10 11 12 13 13 12 11 12 13 10 7 7 10 11 11 11 12 15 15 10 8 6 3 1 1 0 0 0 0 0 0 0 0 0 0 0
14 13 12 11 12 12 11 11 12 13 14 12 8 8 11 14 13 12 14 18 19 17 15 13 9 6 5 3 2 1 0 0 0 0 0 0 0 0
17 16 14 12 11 10 9 7 7 9 11 11 11 11 14 16 15 15 16 18 20 21 20 17 14 12 11 8 6 4 1 0 0 0 0 0 0 0
19 18 16 13 11 10 8 6 5 7 9 12 12 13 16 18 18 17 15 15 17 21 21 18 17 16 15 12 8 5 2 0 0 0 0 0 0 0
18 18 17 14 11 9 9 9 10 10 10 9 10 12 14 16 16 16 14 13 14 18 20 18 18 18 17 14 8 4 2 1 0 0 0 0 0 0
15 15 15 14 10 9 10 13 15 15 12 9 7 8 10 10 11 13 15 15 14 16 18 18 16 17 18 15 8 4 3 1 0 0 0 0 0 0
13 13 12 11 9 8 11 13 14 15 14 11 8 8 9 10 10 14 19 20 17 14 16 16 14 14 15 13 8 4 3 2 1 1 0 0 0 0
14 13 12 9 6 6 7 9 10 11 13 13 11 11 13 14 14 16 20 21 19 16 15 15 15 15 14 10 6 5 5 5 4 3 2 1 0 0
15 14 12 7 4 3 3 4 5 6 10 12 12 13 14 15 15 16 18 19 19 18 16 15 16 17 14 9 6 6 7 8 8 7 5 3 2 2
13 12 9 4 2 3 3 2 3 6 10 12 12 13 14 14 13 13 14 16 16 15 14 14 14 14 13 9 6 6 8 9 10 10 8 6 5 5
11 11 9 6 4 5 5 5 6 9 12 12 12 13 13 14 13 13 13 12 11 10 9 11 11 10 10 8 6 5 7 9 10 11 10 8 8 7
10 11 12 11 10 10 10 10 11 12 13 12 11 11 12 13 13 12 11 10 9 7 7 9 8 6 7 7 5 4 6 7 9 10 10 9 8 7
9 11 13 14 14 14 13 13 12 12 12 11 10 11 12 13 12 11 10 10 10 8 8 8 7 5 5 5 4 4 4 6 7 7 7 7 7 6
9 9 11 12 14 14 13 11 11 12 11 10 9 10 11 12 11 10 10 10 11 10 9 8 6 5 5 4 3 2 2 4 5 5 5 5 5 4
7 8 9 10 12 12 11 10 10 10 9 8 7 8 9 10 10 10 9 10 10 10 9 7 7 6 6 4 2 1 1 2 4 4 4 4 3 3
5 6 8 9 9 9 9 8 8 8 8 7 6 7 7 8 9 9 9 9 9 9 8 7 7 6 5 3 1 0 0 0 1 2 2 3 3 3
5 6 7 7 7 7 6 5 5 6 7 7 6 6 7 7 7 8 8 9 9 9 8 8 7 5 3 1 0 0 0 0 0 1 1 1 2 2
6 6 6 6 5 5 4 4 4 5 6 6 6 6 6 6 6 7 8 9 10 9 8 7 7 5 2 0 0 0 0 0 0 0 0 0 1 1

GEFSNE_con_probscp_348.txt.gz
Probability
9 8 7 7 8 8 6 6 5 4 4 8 11 11 11 11 10 12 12 7 2 0 0 0 0 0 0 0 0 0 0 0 0 0 1 2 2 2
12 10 8 7 7 6 6 6 6 5 6 8 12 13 13 11 11 12 12 8 3 0 0 0 0 0 0 0 0 0 0 0 0 0 0 1 1 1
15 14 11 8 7 6 7 7 8 8 8 9 12 15 15 13 12 12 12 10 6 1 0 0 0 0 0 0 0 0 0 0 0 0 0 0 0 0
16 16 15 12 10 9 10 10 10 10 10 10 11 15 17 16 15 14 12 11 8 3 0 0 0 0 0 0 0 0 0 0 0 0 0 0 0 0
17 18 18 16 14 13 12 12 11 10 11 10 10 13 16 19 20 18 14 12 10 5 2 1 0 0 0 0 0 0 0 0 0 0 0 0 0 0
17 18 17 17 16 13 12 11 10 10 10 10 9 9 13 19 23 22 19 17 14 10 5 3 2 1 0 0 0 0 0 0 0 0 0 0 0 0
17 16 16 16 14 11 10 9 10 10 11 10 9 9 12 18 23 23 23 22 19 15 11 8 5 3 2 1 1 0 0 0 0 0 0 0 0 0
16 16 15 14 13 11 8 7 8 9 10 10 10 10 11 15 19 21 23 24 22 19 16 13 10 8 6 5 3 1 0 0 0 0 0 0 0 0
15 15 14 12 12 12 10 7 7 7 7 8 9 10 11 13 16 18 20 21 21 20 18 15 13 11 9 7 4 1 0 0 0 0 0 0 0 0
13 13 12 11 11 13 13 11 9 8 7 7 9 10 11 12 13 15 17 17 18 18 16 14 13 12 10 8 6 3 1 0 0 0 0 0 0 0
14 13 11 10 10 11 13 15 14 12 10 9 9 9 9 9 10 12 14 14 14 15 14 13 13 11 9 8 7 3 1 0 0 0 0 0 0 0
16 15 12 9 8 8 11 14 15 14 13 11 10 9 8 7 8 10 13 13 13 12 12 13 12 10 8 7 6 4 1 1 1 1 0 0 0 0
16 15 13 9 6 5 7 10 11 12 13 13 12 11 11 10 11 11 13 13 12 11 12 14 12 8 6 5 4 4 4 4 3 2 1 0 0 0
14 13 11 7 4 3 4 5 6 8 12 13 13 13 13 14 14 14 15 14 12 10 12 14 12 9 5 3 2 4 6 6 4 4 2 1 0 0
10 9 8 5 3 3 4 4 5 8 12 14 14 14 14 15 16 16 16 15 12 10 11 12 12 10 6 2 1 4 6 6 6 5 4 2 1 1
7 7 7 5 5 5 6 6 7 11 13 14 14 15 16 16 17 16 16 15 12 9 8 9 9 9 7 4 3 4 5 5 5 5 4 3 3 2
6 7 7 7 7 8 9 10 11 13 15 16 15 15 15 16 15 14 13 12 10 7 6 6 7 7 6 5 5 6 5 5 4 4 4 4 3 3
4 5 6 7 7 9 10 11 12 13 15 17 17 15 13 12 11 11 10 9 8 6 6 6 6 6 6 5 5 5 4 4 3 3 4 3 3 3
3 3 4 4 5 7 8 9 10 10 12 15 16 14 12 9 7 7 6 6 6 6 6 6 6 6 6 4 3 3 3 3 3 3 3 3 2 1
3 3 3 3 4 5 7 7 6 7 9 11 12 12 10 7 4 2 2 3 3 4 4 5 5 6 5 4 3 2 2 2 3 3 3 2 1 0
2 2 2 2 3 5 5 3 3 5 7 8 8 7 5 3 1 0 0 1 1 2 2 3 4 4 4 3 3 3 2 2 2 2 2 1 0 0
1 1 1 1 2 4 3 2 1 3 5 5 4 3 2 1 1 0 0 1 2 3 3 3 3 3 3 3 3 3 3 2 1 1 1 0 0 0
0 0 0 0 1 2 2 1 2 3 4 3 2 2 2 2 2 1 1 2 4 5 5 4 3 3 3 4 4 4 3 2 1 0 0 0 0 0